30.06.2024;15:00;#
30.06.2024;14:00;#
30.06.2024;13:00;0
30.06.2024;12:00;#
30.06.2024;11:00;0
30.06.2024;10:00;0
30.06.2024;09:00;1
30.06.2024;08:00;2
30.06.2024;07:00;7
30.06.2024;06:00;13
30.06.2024;05:00;18
30.06.2024;04:00;20
30.06.2024;03:00;24
30.06.2024;02:00;26
30.06.2024;01:00;21
30.06.2024;00:00;16
29.06.2024;23:00;13
29.06.2024;22:00;11
29.06.2024;21:00;11
29.06.2024;20:00;11
29.06.2024;19:00;11
29.06.2024;18:00;11
29.06.2024;17:00;11
29.06.2024;16:00;12
29.06.2024;15:00;14
29.06.2024;14:00;16
29.06.2024;13:00;14
29.06.2024;12:00;13
29.06.2024;11:00;13
29.06.2024;10:00;14
29.06.2024;09:00;14
29.06.2024;08:00;10
29.06.2024;07:00;7
29.06.2024;06:00;7
29.06.2024;05:00;10
29.06.2024;04:00;12
29.06.2024;03:00;13
29.06.2024;02:00;14
29.06.2024;01:00;14
29.06.2024;00:00;16
28.06.2024;23:00;20
28.06.2024;22:00;20
28.06.2024;21:00;16
28.06.2024;20:00;14
28.06.2024;19:00;9
28.06.2024;18:00;7
28.06.2024;17:00;8
28.06.2024;16:00;8
